Location: ??
(34.6536°N, 135.5219°E)
Time: 04:21:35
(UTC+00:00)

Daily predictions for brighter satellites

Satellite Brightness Start Highest point End
(mag) Time Altitude Azimuth Time Altitude Azimuth Time Altitude Azimuth
NOSS 3-1 (C) 3.2 09:01:44 10° SSW 09:06:56 63° ESE 09:12:46 10° NE
STARLINK-1027 4.5 09:04:54 10° SSW 09:08:45 35° SE 09:12:38 10° ENE
STARLINK-79 4.1 09:05:07 10° WSW 09:09:04 58° NW 09:13:02 10° NE
STARLINK-1009 3.1 09:06:51 10° SW 09:09:59 73° NW 09:13:07 10° NE
Cosmos 921 Rocket 3.8 09:06:27 10° SSE 09:10:28 33° E 09:14:31 10° NE
STARLINK-78 4.2 09:06:46 10° WSW 09:10:43 55° NW 09:14:40 10° NE
Lacrosse 4 Rocket 2.6 09:06:58 10° SW 09:10:56 45° WNW 09:15:02 10° NNE
STARLINK-1015 3.2 09:08:23 10° SW 09:11:32 70° NW 09:14:42 10° NE
Cosmos 1340 4.5 09:10:20 10° ESE 09:12:03 13° E 09:13:46 10° ENE
FengYun 1-2 T 4.3 09:06:28 10° SSE 09:12:07 82° ENE 09:17:46 10° N
STARLINK-57 4.3 09:08:33 10° WSW 09:12:27 51° NW 09:16:23 10° NE
STARLINK-49 4.3 09:10:06 10° WSW 09:14:00 52° NW 09:17:57 10° NE
Cosmos 1833 Rocket 4.0 09:09:52 10° NNW 09:15:15 47° WSW 09:20:36 10° S
STARLINK-27 4.3 09:11:47 10° WSW 09:15:42 50° NW 09:19:37 10° NE
YAOGAN 1 2.9 09:13:12 10° SE 09:17:18 44° ENE 09:21:25 10° N
STARLINK-74 4.4 09:13:26 10° WSW 09:17:19 48° NW 09:21:14 10° NE
STARLINK-39 4.5 09:15:08 10° WSW 09:19:00 46° NW 09:22:53 10° NE
STARLINK-1033 4.4 09:15:40 10° SSW 09:19:24 34° SE 09:23:09 10° ENE
USA 267 4.4 09:14:47 10° ENE 09:19:51 24° ESE 09:24:53 10° S
Intelsat 5-1 Rocket 4.5 09:16:19 10° SSW 09:20:21 25° SSE 09:28:47 10° E
SL-27 R/B 4.3 09:19:42 10° NE 09:20:40 11° ENE 09:21:09 11° ENE
CZ-2D R/B 3.8 09:17:35 10° SE 09:21:09 36° ENE 09:24:44 10° N
Atlas 2A Centaur Rocket 3.7 09:15:33 10° W 09:23:56 35° SSW 09:26:49 10° SE
CSL-04 Rocket 3.9 09:19:12 10° SSE 09:24:32 51° ENE 09:29:52 10° N
Cosmos 1346 Rocket 4.3 09:22:57 10° SE 09:25:26 16° E 09:27:55 10° NE
Hubble Space Telescope 3.0 09:23:16 10° SSW 09:25:31 14° SSE 09:27:46 10° SE
Cosmos 1633 Rocket 3.2 09:21:55 10° SSE 09:26:04 47° E 09:30:14 10° NNE
Cosmos 1503 Rocket 4.0 09:21:36 10° NNW 09:26:54 86° ENE 09:32:06 10° SSE
STARLINK-1024 4.1 09:25:27 10° SSW 09:29:21 43° SE 09:32:49 13° ENE
Cosmos 1666 Rocket 3.5 09:25:09 10° S 09:29:34 67° E 09:34:01 10° NNE
Cosmos 1812 3.5 09:27:15 10° NNE 09:30:41 29° E 09:34:05 10° SE
Cosmos 1607 4.3 09:25:21 10° NNW 09:31:20 43° NE 09:37:21 10° SE
CSL-04 Debris 4.1 09:31:33 10° SSE 09:36:56 69° ENE 09:42:22 10° N
NOAA 11 4.1 09:31:58 10° SSE 09:37:24 77° ENE 09:42:50 10° N
STARLINK-1032 3.8 09:35:17 10° SSW 09:39:18 54° SE 09:42:25 16° ENE
NOSS 2-3 (E) 3.8 09:35:24 10° S 09:39:23 45° ESE 09:43:43 10° NE
CZ-4 R/B 1.8 09:35:28 10° S 09:39:39 72° W 09:43:51 10° NNW
GPS 2-04 Rocket1 4.3 09:38:34 10° SSW 09:41:52 22° SSE 09:43:48 16° ESE
Cosmos 1939 Rocket 2.8 09:39:31 10° SSE 09:43:36 78° ENE 09:47:44 10° N
STARLINK-1011 3.6 09:40:09 10° SSW 09:44:13 61° SE 09:47:09 18° NE
Cosmos 1725 Rocket 4.2 09:38:12 10° S 09:44:20 76° W 09:50:33 10° N
Cosmos 1816 Rocket 4.5 09:40:56 10° N 09:47:19 80° E 09:53:40 10° S
STARLINK-1036 3.6 09:45:09 10° SW 09:49:14 69° SE 09:52:00 20° NE
ADEOS Rocket 3.6 09:43:39 10° NNE 09:51:29 85° ESE 09:59:07 10° SSW
NOSS 2-3 (D) 3.5 09:50:02 10° SSW 09:54:09 62° ESE 09:57:50 15° NE
STARLINK-1044 3.5 09:50:08 10° SW 09:54:15 78° SE 09:56:50 22° NE
USA 229 DEB 4.2 09:49:05 10° SW 09:55:25 57° NW 10:02:05 10° NNE
USA 229 4.2 09:49:11 10° SW 09:55:32 58° NW 10:02:11 10° NNE
BREEZE-M DEB (TANK) 3.1 09:48:43 10° NW 09:56:15 65° NNE 09:57:42 30° ESE
Cosmos 1777 Rocket 4.3 09:51:43 10° N 09:56:46 44° ENE 10:01:45 10° SE
Cosmos 1943 Rocket 2.5 09:54:21 10° SSW 09:59:55 67° WNW 10:05:28 10° NNE
NOSS 3-1 (A) 3.3 09:57:20 10° SW 10:02:38 77° WNW 10:08:40 10° NNE
STARLINK-1037 3.6 10:00:06 10° SW 10:04:13 84° NW 10:06:25 27° NE
Tsikada Rocket 4.2 09:59:42 10° N 10:06:05 79° W 10:12:29 10° S
STARLINK-1059 3.7 10:04:57 10° SW 10:09:04 76° NW 10:11:05 29° NE
Cosmos 1470 Rocket 3.4 10:05:14 10° S 10:09:33 83° E 10:13:55 10° N
Aureole 2 Rocket 3.1 10:07:23 10° SW 10:09:51 38° WNW 10:11:31 17° N
STARLINK-1057 3.8 10:09:58 10° SW 10:14:05 68° NW 10:15:54 32° NNE
STARLINK-1034 4.0 10:15:00 10° WSW 10:19:04 61° NW 10:20:41 34° NNE
H-2A R/B 2.2 10:19:35 32° SE 10:21:41 49° ENE 10:26:53 10° N
Cosmos 1862 Rocket 3.4 10:17:45 10° N 10:22:06 89° W 10:26:27 10° S
STARLINK-1068 4.2 10:19:58 10° WSW 10:24:02 55° NW 10:25:27 35° NNE
STARLINK-1031 4.4 10:20:49 10° WSW 10:24:38 46° NW 10:25:59 32° N
Abrixas rocket 3.4 10:23:49 10° WNW 10:26:29 33° SW 10:26:29 33° SW
Ariane Rocket 2.9 10:23:13 10° SSE 10:28:19 88° ENE 10:33:27 10° NNW
NOSS 2-3 (C) 4.2 10:24:19 10° SW 10:28:26 54° NW 10:31:29 20° NNE
MOS 1 4.2 10:24:41 17° SSE 10:29:01 63° ENE 10:34:37 10° N
CZ-2C R/B 3.4 10:28:51 42° ESE 10:30:15 51° ENE 10:35:51 10° N
Cosmos 2369 Rocket 3.2 10:27:34 10° SW 10:32:56 45° WNW 10:38:23 10° N
Cosmos 1656 Rocket 3.5 10:34:30 10° SSW 10:39:58 88° WNW 10:43:08 27° NNE
SL-4 R/B 2.4 10:40:04 10° NW 10:44:40 63° SW 10:44:47 63° SW
Cosmos 1072 Rocket 4.5 10:43:48 10° S 10:50:13 86° W 10:56:36 10° N
Gbstr 26 Del rocket 4.1 10:54:05 10° SW 10:56:32 37° SW 10:56:32 37° SW
USA 267 3.3 11:01:05 47° NNE 11:03:09 77° NW 11:09:40 10° SW
Meteor 2-11 Rocket 4.5 10:57:32 10° S 11:03:38 76° W 11:09:44 10° N
Hubble Space Telescope 3.2 11:02:33 10° SW 11:03:48 17° SW 11:03:48 17° SW
ARGOS 3.3 11:08:52 69° W 11:08:52 69° W 11:14:10 10° NNW
FALCON 9 R/B 3.5 11:16:04 10° WNW 11:29:03 43° SW 11:29:27 43° SSW
